Change the Weather History Date:

Sunday, September 8, 2013

  Actual Average (KHFF) Record (KHFF)
Temperature  
Mean Temperature 76 °F -  
Max Temperature 89 °F 81 °F 93 °F (2010)
Min Temperature 64 °F 64 °F 57 °F (2001)
Cooling Degree Days 12    
Growing Degree Days 26 (Base 50)    
Moisture  
Dew Point 63 °F    
Average Humidity 67    
Maximum Humidity 92    
Minimum Humidity 34    
Precipitation  
Precipitation 0.00 in - - ()
Sea Level Pressure  
Sea Level Pressure 29.97 in    
Wind  
Wind Speed 2 mph (WNW)    
Max Wind Speed 12 mph    
Max Gust Speed 20 mph    
Visibility 10 miles    
Events      
Averages and records for this station are not official NWS values.
T = Trace of Precipitation, MM = Missing Value Source: NWS Daily Summary

Daily Weather History Graph

Daily Weather History Graph

Search for Another Location

Airport or City:

Trip Planner

Search our weather history database for the weather conditions in past years. The results will help you decide how hot, cold, wet, or windy it might be!

Date:

Astronomy

Sep. 08, 2013 Rise Set
Actual Time 6:57 AM EDT 7:35 PM EDT
Civil Twilight 6:31 AM EDT 8:01 PM EDT
Nautical Twilight 6:01 AM EDT 8:31 PM EDT
Astronomical Twilight 5:30 AM EDT 9:01 PM EDT
Moon 10:02 AM EDT (9/8) 9:20 PM EDT (9/8)
Length of Visible Light 13h 29m
Length of Day
12h 38m
Waxing Crescent, 11% of the Moon is Illuminated
Sep 8
Waxing Crescent
Sep 12
First Quarter
Sep 19
Full
Sep 26
Last Quarter
Oct 4
New

Hourly Weather History & Observations

Time (EDT) Temp. Heat Index Dew Point Humidity Pressure Visibility Wind Dir Wind Speed Gust Speed Precip Events Conditions
12:15 AM 68.4 °F - 63.7 °F 85% 30.00 in 10.0 mi Calm Calm - N/A   Clear
12:35 AM 69.1 °F - 63.3 °F 82% 30.00 in 10.0 mi Calm Calm - N/A   Clear
12:55 AM 69.3 °F - 63.1 °F 81% 30.00 in 10.0 mi Calm Calm - N/A   Clear
1:15 AM 69.8 °F - 62.6 °F 78% 29.99 in 10.0 mi Calm Calm - N/A   Clear
1:35 AM 67.3 °F - 62.6 °F 85% 30.00 in 10.0 mi Calm Calm - N/A   Clear
1:55 AM 68.4 °F - 62.6 °F 82% 30.00 in 10.0 mi Calm Calm - N/A   Clear
2:15 AM 67.3 °F - 63.0 °F 86% 30.00 in 10.0 mi SW 3.5 mph - N/A   Clear
2:35 AM 68.4 °F - 61.9 °F 80% 29.99 in 10.0 mi Calm Calm - N/A   Clear
2:55 AM 67.1 °F - 62.1 °F 84% 29.98 in 10.0 mi Calm Calm - N/A   Clear
3:15 AM 68.0 °F - 61.7 °F 80% 29.98 in 10.0 mi Calm Calm - N/A   Clear
3:35 AM 66.9 °F - 62.4 °F 85% 29.98 in 10.0 mi Calm Calm - N/A   Clear
3:55 AM 67.3 °F - 61.9 °F 83% 29.98 in 10.0 mi Calm Calm - N/A   Clear
4:15 AM 67.5 °F - 61.7 °F 82% 29.98 in 10.0 mi Calm Calm - N/A   Clear
4:35 AM 66.4 °F - 61.7 °F 85% 29.97 in 10.0 mi Calm Calm - N/A   Clear
4:55 AM 65.8 °F - 61.7 °F 86% 29.97 in 10.0 mi Calm Calm - N/A   Clear
5:15 AM 65.3 °F - 61.7 °F 88% 29.97 in 10.0 mi Calm Calm - N/A   Clear
5:35 AM 65.7 °F - 61.9 °F 88% 29.97 in 10.0 mi Calm Calm - N/A   Clear
5:55 AM 66.4 °F - 62.1 °F 86% 29.97 in 10.0 mi SSW 3.5 mph - N/A   Clear
6:15 AM 64.6 °F - 61.7 °F 90% 29.98 in 10.0 mi Calm Calm - N/A   Clear
6:35 AM 64.9 °F - 62.1 °F 90% 29.98 in 10.0 mi Calm Calm - N/A   Clear
6:55 AM 64.8 °F - 62.1 °F 91% 29.98 in 10.0 mi Calm Calm - N/A   Clear
7:15 AM 65.3 °F - 62.4 °F 90% 29.98 in 10.0 mi Calm Calm - N/A   Clear
7:35 AM 64.4 °F - 62.1 °F 92% 29.98 in 10.0 mi Calm Calm - N/A   Clear
7:55 AM 66.6 °F - 64.2 °F 92% 29.98 in 10.0 mi Calm Calm - N/A   Clear
8:15 AM 69.1 °F - 64.9 °F 87% 29.99 in 10.0 mi WSW 4.6 mph - N/A   Clear
8:35 AM 69.4 °F - 64.9 °F 86% 29.99 in 10.0 mi West 5.8 mph - N/A   Clear
8:55 AM 70.5 °F - 65.3 °F 83% 29.99 in 10.0 mi WSW 5.8 mph - N/A   Clear
9:15 AM 72.7 °F - 65.7 °F 79% 29.98 in 10.0 mi WSW 4.6 mph - N/A   Clear
9:35 AM 73.6 °F - 66.2 °F 78% 29.98 in 10.0 mi WSW 4.6 mph - N/A   Clear
9:55 AM 74.7 °F - 66.7 °F 76% 29.98 in 10.0 mi Calm Calm - N/A   Clear
10:15 AM 76.5 °F - 66.7 °F 72% 29.98 in 10.0 mi Calm Calm - N/A   Clear
10:35 AM 78.4 °F - 67.6 °F 69% 29.98 in 10.0 mi West 3.5 mph - N/A   Clear
10:55 AM 79.5 °F - 66.7 °F 65% 29.98 in 10.0 mi West 5.8 mph - N/A   Clear
11:15 AM 81.1 °F 83.7 °F 67.6 °F 63% 29.98 in 10.0 mi WNW 5.8 mph - N/A   Clear
11:35 AM 82.0 °F 84.1 °F 65.8 °F 58% 29.98 in 10.0 mi Calm Calm - N/A   Clear
11:55 AM 84.0 °F 85.4 °F 64.2 °F 51% 29.97 in 10.0 mi NNW 4.6 mph - N/A   Clear
12:15 PM 83.8 °F 84.7 °F 63.0 °F 49% 29.97 in 10.0 mi West 4.6 mph - N/A   Clear
12:35 PM 84.7 °F 85.6 °F 63.3 °F 48% 29.97 in 10.0 mi NW 3.5 mph - N/A   Scattered Clouds
12:55 PM 85.1 °F 85.7 °F 62.4 °F 46% 29.96 in 10.0 mi NW 6.9 mph - N/A   Clear
1:15 PM 86.4 °F 87.0 °F 62.4 °F 45% 29.96 in 10.0 mi WNW 6.9 mph - N/A   Scattered Clouds
1:35 PM 86.9 °F 88.1 °F 63.7 °F 46% 29.95 in 10.0 mi NW 9.2 mph - N/A   Scattered Clouds
1:55 PM 87.1 °F 88.0 °F 63.7 °F 45% 29.95 in 10.0 mi WNW 8.1 mph - N/A   Scattered Clouds
2:15 PM 86.5 °F 86.8 °F 61.7 °F 43% 29.95 in 10.0 mi North 8.1 mph - N/A   Scattered Clouds
2:35 PM 87.8 °F 87.9 °F 61.2 °F 41% 29.94 in 10.0 mi NNW 11.5 mph 19.6 mph N/A   Clear
2:55 PM 88.2 °F 87.3 °F 59.0 °F 37% 29.93 in 10.0 mi West 6.9 mph - N/A   Clear
3:15 PM 87.8 °F 87.1 °F 59.4 °F 38% 29.92 in 10.0 mi North 5.8 mph 17.3 mph N/A   Clear
3:35 PM 88.0 °F 86.9 °F 58.1 °F 36% 29.92 in 10.0 mi NNW 6.9 mph - N/A   Clear
3:55 PM 87.4 °F 86.5 °F 58.5 °F 37% 29.92 in 10.0 mi NW 3.5 mph - N/A   Clear
4:15 PM 89.2 °F 87.9 °F 57.4 °F 34% 29.92 in 10.0 mi NNW 3.5 mph - N/A   Clear
4:35 PM 87.6 °F 86.7 °F 58.1 °F 37% 29.92 in 10.0 mi NW 6.9 mph - N/A   Clear
4:55 PM 87.8 °F 86.9 °F 58.6 °F 37% 29.92 in 10.0 mi NNW 5.8 mph - N/A   Clear
5:15 PM 88.0 °F 87.6 °F 59.9 °F 39% 29.92 in 10.0 mi NW 6.9 mph - N/A   Clear
5:35 PM 87.1 °F 87.0 °F 60.8 °F 41% 29.92 in 10.0 mi WNW 5.8 mph - N/A   Clear
5:55 PM 87.1 °F 87.2 °F 61.5 °F 42% 29.92 in 10.0 mi NW 5.8 mph - N/A   Scattered Clouds
6:15 PM 86.9 °F 87.2 °F 61.9 °F 43% 29.93 in 10.0 mi NNW 4.6 mph - N/A   Clear
6:35 PM 85.8 °F 86.3 °F 62.4 °F 45% 29.93 in 10.0 mi NNW 3.5 mph - N/A   Clear
6:55 PM 84.7 °F 85.9 °F 63.5 °F 49% 29.93 in 10.0 mi NNW 3.5 mph - N/A   Clear
7:15 PM 83.7 °F 84.9 °F 63.5 °F 51% 29.93 in 10.0 mi Calm Calm - N/A   Clear
7:35 PM 82.4 °F 83.7 °F 63.9 °F 53% 29.93 in 10.0 mi North 3.5 mph - N/A   Clear
7:55 PM 81.5 °F 83.1 °F 64.4 °F 56% 29.94 in 10.0 mi Calm Calm - N/A   Clear
8:15 PM 80.4 °F 82.1 °F 64.6 °F 58% 29.95 in 10.0 mi Calm Calm - N/A   Clear
8:35 PM 79.7 °F - 64.8 °F 60% 29.95 in 10.0 mi Calm Calm - N/A   Clear
8:55 PM 77.9 °F - 64.9 °F 64% 29.96 in 10.0 mi Calm Calm - N/A   Clear
9:15 PM 76.6 °F - 65.5 °F 68% 29.97 in 10.0 mi Calm Calm - N/A   Clear
9:35 PM 77.0 °F - 65.5 °F 67% 29.97 in 10.0 mi Calm Calm - N/A   Clear
9:55 PM 76.3 °F - 65.3 °F 69% 29.98 in 10.0 mi Calm Calm - N/A   Clear
10:15 PM 74.7 °F - 65.5 °F 73% 29.98 in 10.0 mi Calm Calm - N/A   Clear
10:35 PM 75.2 °F - 65.5 °F 72% 29.98 in 10.0 mi Calm Calm - N/A   Clear
10:55 PM 74.7 °F - 64.8 °F 71% 29.99 in 10.0 mi Calm Calm - N/A   Clear
11:15 PM 74.3 °F - 64.9 °F 72% 29.99 in 10.0 mi Calm Calm - N/A   Clear
11:35 PM 72.5 °F - 66.0 °F 80% 29.99 in 10.0 mi Calm Calm - N/A   Clear
11:55 PM 72.5 °F - 66.6 °F 82% 30.00 in 10.0 mi NE 3.5 mph - N/A   Clear